User: anonymous   Login
Location: Unspecified
(0.0000°N, 0.0000°E)
Time: 11:27:55
(UTC+01:00)
Language:

Cosmos 1933 - Orbit

View from above orbital plane
View from above orbital plane
View from above satellite
View from above satellite

Ground track
Ground track

The orbit data is extracted from the following two-line orbital elements,

1 18958U 88020A   18052.54377629  .00000692  00000-0  48767-4 0  9991
2 18958  82.5279 223.2009 0012321 148.1752 212.0221 15.03395374628995
Epoch (UTC): 21 February 2018 13:03:02
Eccentricity: 0.0012321
inclination: 82.5279°
perigee height: 548 km
apogee height: 565 km
right ascension of ascending node: 223.2009°
argument of perigee: 148.1752°
revolutions per day: 15.03395374
mean anomaly at epoch: 212.0221°
orbit number at epoch: 62899

The dashed part of the orbit path shows where the satellite is in the earth's shadow,  

DLR